• MPC Preparation (Info)

  • MPEC 2024-F20 : 2024 FH

    The following Minor Planet Electronic Circular may be linked-to from your own Web pages, but must not otherwise be redistributed electronically.

    A form allowing access to any MPEC is at the bottom of this page.


    Read MPEC 2024-F19 Read MPEC 2024-F21


    M.P.E.C. 2024-F20                                Issued 2024 March 19, 04:16 UT
    
         The Minor Planet Electronic Circulars contain information on unusual
             minor planets, routine data on comets and natural satellites,
             and occasional editorial announcements.  They are published
        on behalf of Division F of the International Astronomical Union by the
              Minor Planet Center, Smithsonian Astrophysical Observatory,
                              Cambridge, MA 02138, U.S.A.
    			  
                 Prepared using the Tamkin Foundation Computer Network
    
                                  MPC@CFA.HARVARD.EDU
                URL https://www.minorplanetcenter.net/    ISSN 1523-6714
    
                                     2024 FH                                 
    
    
    Observations:
         K24F00H* C2024 03 17.41830111 07 33.662+04 49 16.32         20.55wXEF020F51
         K24F00H  C2024 03 17.43046111 07 34.678+04 50 36.55         20.79wXEF020F51
         K24F00H  C2024 03 17.44261711 07 35.696+04 51 56.53         20.36wXEF020F51
         K24F00H  C2024 03 17.45475011 07 36.711+04 53 16.05         20.59wXEF020F51
         K24F00H  C2024 03 17.52476711 07 42.709+05 00 51.90         20.27GVEF020F52
         K24F00H  C2024 03 17.52558911 07 42.785+05 00 57.23         20.26GVEF020F52
         K24F00H 1C2024 03 17.92967 11 08 27.19 +05 42 56.2          19.8 VXEF020033
         K24F00H 1C2024 03 17.93054 11 08 27.26 +05 43 01.3          20.4 VXEF020033
         K24F00H 1C2024 03 17.93141 11 08 27.30 +05 43 06.8          20.2 VXEF020033
         K24F00H KC2024 03 18.10609711 08 46.46 +06 00 47.4          20.6 GVEF020H21
         K24F00H KC2024 03 18.11448511 08 47.18 +06 01 37.3          20.4 GVEF020H21
         K24F00H |C2024 03 18.13471011 08 48.080+06 04 43.40         20.2 GVEF020807
         K24F00H |C2024 03 18.13801611 08 48.330+06 05 02.90         20.2 GVEF020807
         K24F00H |C2024 03 18.14131011 08 48.620+06 05 22.20         20.1 GVEF020807
         K24F00H 1C2024 03 18.29168411 09 03.042+06 18 50.60               LEF020658
         K24F00H 1C2024 03 18.29430011 09 03.255+06 19 05.71               LEF020658
         K24F00H 1C2024 03 18.29691611 09 03.440+06 19 20.76               LEF020658
         K24F00H 1C2024 03 18.29953111 09 03.641+06 19 35.97               LEF020658
         K24F00H 1C2024 03 18.30214711 09 03.829+06 19 51.01               LEF020658
         K24F00H 1C2024 03 18.30476311 09 04.032+06 20 05.93               LEF020658
         K24F00H KC2024 03 19.14981411 10 22.34 +07 36 46.9          20.6 GVEF020H21
         K24F00H KC2024 03 19.15540711 10 22.74 +07 37 15.9          20.8 GVEF020H21
         K24F00H KC2024 03 19.16090611 10 23.12 +07 37 43.7          20.8 GVEF020H21
    
    Observer details:
    033 Karl Schwarzschild Observatory, Tautenburg.  Observers S. Melnikov, C.
        Hogner, F. Ludwig, M. Hartmann, B. Stecklum.  Measurer B. Stecklum.
        1.34-m f/3 Schmidt + CCD.
    658 National Research Council of Canada.  Observers D. D. Balam, C. E. Spratt.
        Measurers D. D. Balam, D. W. E. Green.  1.82-m Reflector + CCD.
    807 Cerro Tololo Observatory, La Serena.  Observers T. Linder, R. Holmes.
        0.61-m f/6.8 Ritchey-Chretien + CCD.
    F51 Pan-STARRS 1, Haleakala.  Observers J. Herman, T. Lowe, P. Minguez, A.
        Schultz, I. Smith.  Measurers K. Chambers, T. de Boer, J. Fairlamb, H.
        Gao, M. Huber, C.-C. Lin, E. Magnier, Y. Ramanjooloo, R. Wainscoat, R.
        Weryk.  1.8-m Ritchey-Chretien + CCD.
    F52 Pan-STARRS 2, Haleakala.  Observers J. Herman, T. Lowe, P. Minguez, A.
        Schultz, I. Smith.  Measurers K. Chambers, T. de Boer, J. Fairlamb, H.
        Gao, M. Huber, C.-C. Lin, E. Magnier, Y. Ramanjooloo, R. Wainscoat, R.
        Weryk.  1.8-m Ritchey-Chretien + CCD.
    H21 Astronomical Research Observatory, Westfield.  Observer R. Holmes.
        Measurers T. Linder, R. Holmes, L. Horn.  0.76-m f/3.0 astrograph + CCD.
    
    Orbital elements:
    2024 FH                                                  Earth MOID = 0.0238 AU
    Epoch 2024 Mar. 31.0 TT = JDT 2460400.5                 MPC                     
    M  32.23242              (2000.0)            P               Q                  
    n   0.42854560     Peri.  261.84277     +0.20928929     -0.97762013             
    a   1.7423605      Node   175.88741     +0.97271037     +0.20589972             
    e   0.6352246      Incl.   17.33992     +0.10016252     +0.04317610             
    P   2.30           H   23.73          G   0.15           U   8                  
    Residuals in seconds of arc
    240317 F51  0.1-  0.1-    240317 033  0.2-  0.2+    240318 658  0.3+  0.0
    240317 F51  0.1-  0.0     240318 H21  0.0   0.1+    240318 658  0.2+  0.1+
    240317 F51  0.0   0.1+    240318 H21  0.3+  0.0     240318 658  0.1-  0.0
    240317 F51  0.1-  0.0     240318 807  0.2-  0.0     240318 658  0.2-  0.2-
    240317 F52  0.1-  0.0     240318 807  0.3-  0.1-    240319 H21  0.0   0.1-
    240317 F52  0.0   0.0     240318 807  0.2+  0.3-    240319 H21  0.0   0.2+
    240317 033  0.4+  0.2+    240318 658  0.7+  0.1+    240319 H21  0.1-  0.1-
    240317 033  0.3+  0.0     240318 658  0.7+  0.1+
    
    Ephemeris:
    2024 FH                  a,e,i = 1.74, 0.64, 17                  q = 0.6356
    Date    TT    R. A. (2000) Decl.     Delta      r    Elong.  Phase     V
    2024 02 18    23 50 24.6 -43 04 27   0.2053  0.8382    38.8   132.3    25.9
    ...
    2024 03 04    06 57 14.6 -75 29 09   0.06371 0.9945    90.8    85.6    20.7
    ...
    2024 03 12    10 52 18.2 -11 23 31   0.09027 1.0802   162.7    15.9    19.5
    ...
    2024 03 18    11 08 33.9 +05 50 40   0.1516  1.1441   168.3    10.1    20.6
    2024 03 19    11 10 07.9 +07 24 17   0.1628  1.1547   167.0    11.2    20.8
    2024 03 20    11 11 32.0 +08 45 29   0.1742  1.1653   165.5    12.3    21.0
    ...
    2024 03 26    11 17 47.4 +14 02 34   0.2457  1.2282   157.6    18.0    22.1
    ...
    2024 04 03    11 23 36.7 +17 12 36   0.3476  1.3104   149.1    23.1    23.1
    ...
    2024 04 18    11 33 36.0 +18 40 56   0.5567  1.4581   136.3    28.4    24.5
    
    A. U. Tomatic                (C) Copyright 2024 MPC           M.P.E.C. 2024-F20
    


    Read MPEC 2024-F19 Read MPEC 2024-F21


    MPEC number:

    Enter an MPEC number in one of the following forms:

    • 1997-B01 (the full form)
    • J97B01 (the packed version of the full form)
    • B01 (the abbreviated form)